Weather History for KPEQ - February, 2013

Change the Weather History Date:

Sunday, February 24, 2013

  Actual Average Record
Temperature  
Mean Temperature 52 °F -  
Max Temperature 78 °F 70 °F 94 °F (1904)
Min Temperature 26 °F 32 °F 16 °F (1966)
Degree Days  
Heating Degree Days 13    
Growing Degree Days 2 (Base 50)    
Moisture  
Dew Point 16 °F    
Average Humidity 34    
Maximum Humidity 64    
Minimum Humidity 9    
Precipitation  
Precipitation 0.00 in - - ()
Sea Level Pressure  
Sea Level Pressure 29.69 in    
Wind  
Wind Speed 7 mph (SW)    
Max Wind Speed 34 mph    
Max Gust Speed 45 mph    
Visibility 10 miles    
Events      
Averages and records for this station are not official NWS values.
T = Trace of Precipitation, MM = Missing Value Source: NWS Daily Summary

Daily Weather History Graph

Daily Weather History Graph

Search for Another Location

Airport or City:

Trip Planner

Search our weather history database for the weather conditions in past years. The results will help you decide how hot, cold, wet, or windy it might be!

Date:

Astronomy

Feb. 24, 2013 Rise Set
Actual Time 7:26 AM CST 6:48 PM CST
Civil Twilight 7:01 AM CST 7:13 PM CST
Nautical Twilight 6:33 AM CST 7:41 PM CST
Astronomical Twilight 6:05 AM CST 8:09 PM CST
Moon 6:01 PM CST (2/24) 6:23 AM CST (2/24)
Length of Visible Light 12h 11m
Length of Day
11h 22m
Waxing Gibbous, 99% of the Moon is Illuminated
Feb 24
Waxing Gibbous
Feb 25
Full
Mar 4
Last Quarter
Mar 11
New
Mar 19
First Quarter

Hourly Weather History & Observations

Time (CST) Temp. Windchill Dew Point Humidity Pressure Visibility Wind Dir Wind Speed Gust Speed Precip Events Conditions
12:15 AM 43.3 °F - 17.1 °F 35% 29.78 in 10.0 mi Calm Calm - N/A   Clear
12:35 AM 40.1 °F 35.3 °F 16.7 °F 39% 29.77 in 10.0 mi WSW 6.9 mph - N/A   Clear
12:55 AM 37.0 °F 33.3 °F 16.3 °F 43% 29.77 in 10.0 mi ESE 4.6 mph - N/A   Clear
1:15 AM 40.5 °F 38.4 °F 15.8 °F 37% 29.77 in 10.0 mi South 3.5 mph - N/A   Clear
1:35 AM 37.6 °F 35.1 °F 15.4 °F 41% 29.76 in 10.0 mi South 3.5 mph - N/A   Clear
1:55 AM 34.3 °F 29.2 °F 15.1 °F 45% 29.77 in 10.0 mi SSE 5.8 mph - N/A   Clear
2:15 AM 32.9 °F 27.5 °F 14.9 °F 48% 29.76 in 10.0 mi SSE 5.8 mph - N/A   Clear
2:35 AM 32.9 °F 28.5 °F 14.5 °F 47% 29.75 in 10.0 mi SSE 4.6 mph - N/A   Clear
2:55 AM 32.9 °F - 14.7 °F 47% 29.74 in 10.0 mi Calm Calm - N/A   Clear
3:15 AM 32.0 °F 27.5 °F 15.1 °F 50% 29.73 in 10.0 mi SW 4.6 mph - N/A   Clear
3:35 AM 31.3 °F 25.6 °F 15.6 °F 52% 29.73 in 10.0 mi WSW 5.8 mph - N/A   Clear
3:55 AM 31.8 °F 26.2 °F 15.3 °F 50% 29.73 in 10.0 mi SW 5.8 mph - N/A   Clear
4:15 AM 30.7 °F 24.9 °F 15.4 °F 53% 29.72 in 10.0 mi WNW 5.8 mph - N/A   Clear
4:35 AM 30.7 °F 26.0 °F 15.4 °F 53% 29.72 in 10.0 mi SE 4.6 mph - N/A   Clear
4:55 AM 31.6 °F 26.0 °F 16.0 °F 52% 29.72 in 10.0 mi NW 5.8 mph - N/A   Clear
5:15 AM 32.9 °F 29.8 °F 16.5 °F 51% 29.73 in 10.0 mi North 3.5 mph - N/A   Clear
5:35 AM 32.0 °F - 16.3 °F 52% 29.72 in 10.0 mi Calm Calm - N/A   Clear
5:55 AM 29.7 °F - 17.1 °F 59% 29.73 in 10.0 mi Calm Calm - N/A   Clear
6:15 AM 28.0 °F 24.2 °F 15.6 °F 60% 29.72 in 10.0 mi South 3.5 mph - N/A   Clear
6:35 AM 28.2 °F 24.4 °F 16.5 °F 62% 29.72 in 10.0 mi SSW 3.5 mph - N/A   Clear
7:15 AM 27.3 °F 23.4 °F 15.8 °F 62% 29.72 in 10.0 mi South 3.5 mph - N/A   Clear
7:35 AM 26.4 °F - 15.6 °F 64% 29.73 in 10.0 mi Calm Calm - N/A   Clear
7:55 AM 28.2 °F 24.4 °F 17.4 °F 64% 29.74 in 10.0 mi NW 3.5 mph - N/A   Clear
8:15 AM 30.2 °F - 18.0 °F 60% 29.73 in 10.0 mi Calm Calm - N/A   Clear
8:35 AM 34.0 °F - 19.2 °F 55% 29.74 in 10.0 mi Calm Calm - N/A   Clear
8:55 AM 36.9 °F - 18.3 °F 47% 29.74 in 10.0 mi Calm Calm - N/A   Clear
9:15 AM 40.3 °F - 18.5 °F 42% 29.75 in 10.0 mi Calm Calm - N/A   Clear
9:35 AM 43.5 °F - 19.6 °F 38% 29.75 in 10.0 mi Calm Calm - N/A   Clear
9:55 AM 46.2 °F - 20.3 °F 36% 29.74 in 10.0 mi Calm Calm - N/A   Clear
10:15 AM 49.6 °F - 21.4 °F 33% 29.73 in 10.0 mi Calm Calm - N/A   Clear
10:35 AM 53.4 °F - 22.1 °F 30% 29.73 in 10.0 mi NE 3.5 mph - N/A   Clear
10:55 AM 55.4 °F - 21.0 °F 26% 29.72 in 10.0 mi NNE 4.6 mph - N/A   Clear
11:55 AM 64.6 °F - 21.6 °F 19% 29.71 in 10.0 mi ESE 3.5 mph - N/A   Clear
12:15 PM 67.6 °F - 20.1 °F 16% 29.70 in 10.0 mi East 5.8 mph - N/A   Clear
12:35 PM 69.6 °F - 20.3 °F 15% 29.67 in 10.0 mi East 4.6 mph - N/A   Clear
12:55 PM 71.4 °F - 17.4 °F 13% 29.65 in 10.0 mi East 3.5 mph - N/A   Clear
1:15 PM 71.6 °F - 16.9 °F 12% 29.64 in 10.0 mi Calm Calm - N/A   Clear
1:35 PM 72.5 °F - 18.0 °F 13% 29.61 in 10.0 mi ESE 3.5 mph - N/A   Clear
3:55 PM 78.1 °F - 14.0 °F 9% 29.51 in 10.0 mi WSW 24.2 mph 32.2 mph N/A   Clear
4:15 PM 78.1 °F - 14.0 °F 9% 29.50 in 10.0 mi SW 18.4 mph 31.1 mph N/A   Clear
4:35 PM 77.9 °F - 13.8 °F 9% 29.49 in 10.0 mi SW 19.6 mph 27.6 mph N/A   Clear
4:55 PM 77.2 °F - 13.8 °F 9% 29.48 in 10.0 mi WSW 16.1 mph 20.7 mph N/A   Clear
5:15 PM 76.8 °F - 13.3 °F 9% 29.48 in 10.0 mi WSW 16.1 mph 23.0 mph N/A   Clear
5:35 PM 75.2 °F - 13.1 °F 9% 29.48 in 10.0 mi SW 20.7 mph - N/A   Scattered Clouds
5:55 PM 73.9 °F - 13.6 °F 10% 29.49 in 10.0 mi West 18.4 mph 31.1 mph N/A   Mostly Cloudy
6:15 PM 72.5 °F - 14.2 °F 11% 29.50 in 10.0 mi West 21.9 mph 26.5 mph N/A   Overcast
6:35 PM 71.6 °F - 14.7 °F 11% 29.52 in 2.0 mi West 26.5 mph 31.1 mph N/A   Haze
7:55 PM 61.9 °F - 21.0 °F 21% 29.59 in 4.0 mi WNW 27.6 mph 34.5 mph N/A   Haze
8:55 PM 54.7 °F - 19.9 °F 26% 29.69 in 5.0 mi West 34.5 mph 44.9 mph N/A   Haze
9:15 PM 53.1 °F - 16.5 °F 24% 29.72 in 7.0 mi West 27.6 mph 38.0 mph N/A   Overcast
9:35 PM 52.0 °F - 13.8 °F 22% 29.73 in 7.0 mi West 28.8 mph 39.1 mph N/A   Overcast
9:55 PM 51.3 °F - 9.7 °F 19% 29.74 in 10.0 mi West 24.2 mph 31.1 mph N/A   Overcast
10:15 PM 50.2 °F - 7.2 °F 18% 29.75 in 10.0 mi West 23.0 mph 29.9 mph N/A   Overcast
10:35 PM 49.1 °F - 6.4 °F 18% 29.75 in 10.0 mi West 21.9 mph 28.8 mph N/A   Overcast
10:55 PM 48.2 °F - 6.4 °F 18% 29.77 in 10.0 mi West 16.1 mph 25.3 mph N/A   Overcast
11:15 PM 47.5 °F - 6.8 °F 19% 29.78 in 10.0 mi WSW 12.7 mph - N/A   Mostly Cloudy
11:35 PM 46.6 °F - 8.4 °F 21% 29.78 in 10.0 mi WSW 10.4 mph - N/A   Clear
11:55 PM 45.9 °F 38.0 °F 16.2 °F 30% 29.78 in 10.0 mi West 20.7 mph 24.2 mph N/A   Clear